This demonstration page uses our WeatherBlox Daily Observations layout. Learn more.

Left ArrowRight Arrow

Hourly Observations for October 31, 2016

Temp ( °F °C ) Dew Point ( °F °C ) Humidity (%) Winds ( mph kmh ) Pressure ( in mb ) Visibility ( mi km ) Precip ( " mm )
12:51 am 00:51 Cloudy 72 22.2 41 5 33 33 NW 9 15 29.89 1012 10 16 N/A
1:51 am 01:51 Partly Cloudy 71 21.7 40 4.4 32 32 NW 10 17 29.89 1012 10 16 N/A
2:51 am 02:51 Mostly Clear 67 19.4 40 4.4 37 37 N 6 9 29.88 1012 10 16 N/A
3:51 am 03:51 Clear 59 15 41 5 51 51 ESE 3 6 29.89 1012 10 16 N/A
4:51 am 04:51 Clear 58 14.4 40 4.4 51 51 N N/A 29.90 1013 10 16 N/A
5:51 am 05:51 Clear 56 13.3 40 4.4 55 55 SE 3 6 29.93 1014 10 16 N/A
6:51 am 06:51 Sunny 55 12.8 40 4.4 57 57 ESE 5 7 29.94 1014 10 16 N/A
7:51 am 07:51 Sunny 61 16.1 42 5.6 50 50 SE 6 9 29.95 1014 10 16 N/A
8:51 am 08:51 Sunny 73 22.8 43 6.1 34 34 E 8 13 29.93 1014 10 16 N/A
9:51 am 09:51 Sunny 78 25.6 41 5 27 27 ESE 10 17 29.91 1013 10 16 N/A
10:51 am 10:51 Sunny 80 26.7 40 4.4 24 24 ESE 6 9 29.89 1012 10 16 N/A
11:51 am 11:51 Sunny 84 28.9 40 4.4 21 21 E 5 7 29.85 1011 10 16 N/A
12:51 pm 12:51 Sunny 84 28.9 38 3.3 19 19 ENE 3 6 29.81 1009 10 16 N/A
1:51 pm 13:51 Sunny 84 28.9 38 3.3 19 19 NW 5 7 29.78 1009 10 16 N/A
2:51 pm 14:51 Sunny 84 28.9 38 3.3 19 19 NNW 7 11 29.78 1008 10 16 N/A
3:51 pm 15:51 Sunny 82 27.8 39 3.9 22 22 N N/A 29.79 1009 10 16 N/A
4:51 pm 16:51 Sunny 80 26.7 41 5 25 25 WNW 5 7 29.78 1009 10 16 N/A
5:51 pm 17:51 Clear 73 22.8 42 5.6 33 33 WNW 7 11 29.79 1009 10 16 N/A
6:51 pm 18:51 Clear 69 20.6 42 5.6 38 38 NNE 6 9 29.81 1010 10 16 N/A
7:51 pm 19:51 Clear 68 20 42 5.6 39 39 WNW 8 13 29.81 1010 10 16 N/A
8:51 pm 20:51 Clear 67 19.4 42 5.6 41 41 W 6 9 29.80 1009 10 16 N/A
9:51 pm 21:51 Clear 71 21.7 42 5.6 35 35 WSW 6 9 29.80 1009 10 16 N/A
10:51 pm 22:51 Clear 71 21.7 46 7.8 41 41 N 5 7 29.79 1009 10 16 N/A
11:51 pm 23:51 Clear with Light Rain 72 22.2 49 9.4 44 44 N N/A 29.79 1009 10 16 N/A

Powered by AerisWeather